Weather History for KCKV - December, 2012

Change the Weather History Date:

Thursday, December 27, 2012

  Actual Average Record
Temperature  
Mean Temperature 33 °F -  
Max Temperature 35 °F - 72 °F (2008)
Min Temperature 31 °F - 5 °F (1983)
Degree Days  
Heating Degree Days 32    
Month to date heating degree days 456  
Since 1 July heating degree days 1312  
Cooling Degree Days 0    
Month to date cooling degree days 3  
Moisture  
Dew Point 27 °F    
Average Humidity 75    
Maximum Humidity 85    
Minimum Humidity 64    
Precipitation  
Precipitation 0.00 in - 1.04 in (1990)
Month to date precipitation 4.82  
Sea Level Pressure  
Sea Level Pressure 30.16 in    
Wind  
Wind Speed 5 mph (NE)    
Max Wind Speed 13 mph    
Max Gust Speed 16 mph    
Visibility 10 miles    
Events      
T = Trace of Precipitation, MM = Missing Value Source: NWS Daily Summary

Daily Weather History Graph

Daily Weather History Graph

Search for Another Location

Airport or City:

Trip Planner

Search our weather history database for the weather conditions in past years. The results will help you decide how hot, cold, wet, or windy it might be!

Date:

Astronomy

Dec. 27, 2012 Rise Set
Actual Time 7:00 AM CST 4:41 PM CST
Civil Twilight 6:31 AM CST 5:10 PM CST
Nautical Twilight 5:59 AM CST 5:42 PM CST
Astronomical Twilight 5:28 AM CST 6:14 PM CST
Moon 4:23 PM CST (12/27) 6:12 AM CST (12/27)
Length of Visible Light 10h 38m
Length of Day
9h 40m
Full, 100% of the Moon is Illuminated
Dec 27
Full
Dec 28
Full
Jan 4
Last Quarter
Jan 11
New
Jan 18
First Quarter

Hourly Weather History & Observations

Time (CST) Temp. Windchill Dew Point Humidity Pressure Visibility Wind Dir Wind Speed Gust Speed Precip Events Conditions
12:52 AM 33.1 °F 25.5 °F 27.0 °F 78% 30.13 in 10.0 mi NW 9.2 mph - N/A   Overcast
1:52 AM 32.0 °F 24.8 °F 27.0 °F 82% 30.15 in 10.0 mi NNW 8.1 mph - N/A   Overcast
2:52 AM 32.0 °F 24.8 °F 27.0 °F 82% 30.16 in 10.0 mi NW 8.1 mph - N/A   Overcast
3:52 AM 32.0 °F 24.8 °F 27.0 °F 82% 30.16 in 10.0 mi NNW 8.1 mph - N/A   Overcast
4:52 AM 30.9 °F 26.2 °F 27.0 °F 85% 30.16 in 10.0 mi NW 4.6 mph - N/A   Overcast
5:52 AM 30.9 °F 24.3 °F 27.0 °F 85% 30.17 in 10.0 mi North 6.9 mph - N/A   Overcast
6:52 AM 30.9 °F 25.2 °F 27.0 °F 85% 30.17 in 10.0 mi North 5.8 mph - N/A   Overcast
7:52 AM 30.9 °F 25.2 °F 27.0 °F 85% 30.19 in 10.0 mi North 5.8 mph - N/A   Overcast
8:52 AM 32.0 °F 26.4 °F 27.0 °F 82% 30.22 in 10.0 mi NNW 5.8 mph - N/A   Overcast
9:52 AM 33.1 °F 28.7 °F 28.0 °F 82% 30.22 in 10.0 mi North 4.6 mph - N/A   Overcast
10:52 AM 34.0 °F 29.8 °F 28.0 °F 79% 30.21 in 10.0 mi NNE 4.6 mph - N/A   Overcast
11:52 AM 34.0 °F 31.0 °F 25.0 °F 70% 30.19 in 10.0 mi NNE 3.5 mph - N/A   Overcast
12:52 PM 34.0 °F - 25.0 °F 70% 30.17 in 10.0 mi Calm Calm - N/A   Overcast
1:52 PM 34.0 °F 31.0 °F 26.1 °F 73% 30.16 in 10.0 mi East 3.5 mph - N/A   Overcast
2:52 PM 35.1 °F - 25.0 °F 67% 30.16 in 10.0 mi Calm Calm - N/A   Overcast
3:52 PM 34.0 °F 28.0 °F 26.1 °F 73% 30.15 in 8.0 mi East 6.9 mph - N/A   Overcast
4:52 PM 34.0 °F 31.0 °F 26.1 °F 73% 30.16 in 10.0 mi East 3.5 mph - N/A   Overcast
5:52 PM 33.1 °F 28.7 °F 27.0 °F 78% 30.16 in 10.0 mi East 4.6 mph - N/A   Overcast
6:52 PM 33.1 °F 27.7 °F 27.0 °F 78% 30.15 in 10.0 mi East 5.8 mph - N/A   Overcast
7:52 PM 33.1 °F 26.9 °F 27.0 °F 78% 30.15 in 10.0 mi East 6.9 mph - N/A   Overcast
8:52 PM 33.1 °F 30.0 °F 28.0 °F 82% 30.16 in 10.0 mi East 3.5 mph - N/A   Overcast
9:52 PM 33.1 °F 27.7 °F 28.0 °F 82% 30.15 in 10.0 mi ESE 5.8 mph - N/A   Overcast
10:52 PM 34.0 °F 28.8 °F 28.0 °F 79% 30.14 in 10.0 mi East 5.8 mph - N/A   Overcast
11:52 PM 33.1 °F 28.7 °F 28.0 °F 82% 30.11 in 10.0 mi ESE 4.6 mph - N/A   Overcast